Location: Unspecified
(42.3650°N, 71.1030°W)
Time: 16:12:37
(UTC+00:00)

Tiros 1 - Pass Details

Date: 29 June 2024
Orbit: 624 x 656 km, 48.4° (Epoch: 13 July)

Event Time Altitude Azimuth Distance (km) Brightness Sun altitude
Rises 06:20:16 0° 294° (WNW) 2,907 10.5 -21.1°
Reaches altitude 10° 06:22:38 10° 300° (WNW) 2,001 9.7 -20.9°
Maximum altitude 06:27:07 52° 17° (NNE) 779 7.9 -20.6°
Drops below altitude 10° 06:31:39 10° 94° (E) 2,011 9.9 -20.2°
Sets 06:34:02 0° 100° (E) 2,923 10.7 -20.0°
